[[{"header":{"parameterUnit":"m.s-1","parameterCategory":1,"la1":30.2991,"la2":30.254,"lo1":-89.0895,"lo2":-89.0444,"dy":0.0017,"dx":0.0017,"nx":28,"ny":28,"refTime":"2024-03-25T21:00:00:Z","depth":0,"parameterNumber":2,"parameterNumberName":"U-component_of_WINDS"},"data":[0,0,0,0,0,0,0,0,0,0,0,0,0,0,0,0,0,0,0,0,0,0,0,0,0,0,0,0,0,0,0,0,0,0,0,0,0,0,0,0,0,0,0,0,0,0,0,0,0,0,0,0,0,0,0,0,0,0,-0.5573,-0.5574,0,-0.5669,-0.5671,-0.5672,-0.5646,-0.5644,-0.5642,-0.564,-0.5745,-0.575,-0.5754,0,0,0,0,0,0,0,0,0,0,0,0,0,-0.5374,-0.5378,-0.5573,-0.5574,-0.5575,-0.5669,-0.5671,-0.5672,-0.5646,-0.5644,-0.5642,-0.564,-0.5744,-0.5749,-0.5755,0,0,0,0,0,0,0,0,0,0,0,0,0,-0.5465,-0.5379,-0.5573,-0.5574,-0.5575,-0.5669,-0.5671,-0.5672,-0.5647,-0.5644,-0.5641,-0.5638,-0.5742,-0.5749,-0.5755,-0.5856,0,0,-0.5777,-0.5779,0,0,0,0,0,0,0,0,-0.5459,-0.5472,-0.5573,-0.5574,-0.5575,-0.5643,-0.5639,-0.5734,-0.5648,-0.562,-0.564,-0.5637,-0.5714,-0.5723,-0.5748,-0.5861,-0.5866,-0.5777,-0.5781,-0.5784,-0.5786,0,0,0,0,0,0,0,-0.5453,-0.5468,-0.5611,-0.5574,-0.5576,-0.5572,-0.5582,-0.5657,-0.5682,-0.5622,-0.562,-0.5632,-0.5714,-0.5741,-0.575,-0.5867,-0.5777,-0.5783,-0.5787,-0.579,-0.6073,-0.6076,0,0,0,0,0,0,-0.5445,-0.5463,-0.5608,-0.5614,-0.5509,-0.5578,-0.5589,-0.5624,-0.5681,-0.5687,-0.5634,-0.563,-0.5731,-0.5742,-0.5753,-0.5878,-0.5784,-0.5791,-0.5795,-0.6069,-0.6074,-0.6077,0,0,0,0,0,0,-0.5441,-0.5458,-0.5604,-0.5538,-0.5556,-0.5584,-0.5624,-0.5628,-0.5654,-0.569,-0.5695,-0.5657,-0.5729,-0.5744,-0.5831,-0.5881,-0.5794,-0.58,-0.6065,-0.6071,-0.6075,-0.6127,0,0,0,0,0,0,-0.5435,-0.5457,-0.5493,-0.5539,-0.556,-0.5679,-0.5627,-0.5632,-0.5666,-0.5661,-0.5713,-0.5718,-0.5728,-0.5821,-0.5838,-0.5889,-0.5805,-0.6061,-0.6068,-0.6074,-0.6121,-0.6133,-0.6143,0,0,0,0,0,-0.5428,-0.5505,-0.5495,-0.5513,-0.5606,-0.5681,-0.5694,-0.5701,-0.5669,-0.5708,-0.5732,-0.5717,-0.5873,-0.583,-0.5849,-0.5903,-0.6058,-0.6066,-0.6073,-0.6116,-0.6131,-0.6143,0,0,0,0,0,0,-0.5466,-0.551,-0.5501,-0.5594,-0.5634,-0.5677,-0.5726,-0.5716,-0.5767,-0.5761,-0.577,-0.5782,-0.5872,-0.5896,-0.5848,-0.6006,-0.5961,-0.5973,-0.5987,-0.6002,-0.6013,-0.6006,-0.5811,0,0,0,0,0,-0.5484,-0.554,-0.5577,-0.5655,-0.5676,-0.5697,-0.573,-0.5733,-0.5775,-0.5793,-0.5822,-0.5866,-0.5926,-0.5964,-0.6021,-0.6124,-0.6137,-0.617,-0.6182,-0.6191,-0.6202,-0.6262,-0.6279,-0.6102,-0.6102,-0.6102,0,0,-0.5524,-0.5556,-0.559,-0.5664,-0.5695,-0.5755,-0.5712,-0.5776,-0.5822,-0.5803,-0.5888,-0.5912,-0.5962,-0.6058,-0.6102,-0.6081,-0.6253,-0.62,-0.6207,-0.6214,-0.6272,-0.6288,-0.6303,-0.6107,-0.6106,-0.6106,0,0,-0.5629,-0.5656,-0.5726,-0.5759,-0.5806,-0.582,-0.5837,-0.5882,-0.5897,-0.5982,-0.597,-0.6026,-0.6126,-0.6163,-0.6195,-0.6316,-0.6306,-0.6334,-0.6394,-0.6453,-0.6467,-0.648,-0.6526,-0.6543,-0.6344,-0.6345,-0.6345,0,-0.5673,-0.5761,-0.5764,-0.5831,-0.5865,-0.5849,-0.5922,-0.5954,-0.6018,-0.6044,-0.6018,-0.6146,-0.6178,-0.6286,-0.6315,-0.634,-0.6363,-0.6329,-0.6464,-0.6477,-0.6489,-0.6533,-0.6551,-0.6348,-0.6348,-0.6347,-0.6347,0,-0.5815,-0.5876,-0.5927,-0.5989,-0.6029,-0.6098,-0.6115,-0.6155,-0.6155,-0.6172,-0.6261,-0.6299,-0.6365,-0.639,-0.639,-0.6498,-0.6484,-0.6461,-0.6417,-0.6509,-0.6551,-0.6568,-0.6353,-0.6352,-0.6351,-0.635,0,0,-0.5946,-0.6009,-0.6028,-0.6057,-0.611,-0.6158,-0.6229,-0.6291,-0.6327,-0.6372,-0.6434,-0.6521,-0.6501,-0.6537,-0.6541,-0.6593,-0.6691,-0.6564,-0.6566,-0.6589,-0.6817,-0.6836,-0.6856,-0.6683,-0.6686,-0.6689,-0.6814,0,-0.6057,-0.6178,-0.6185,-0.6296,-0.6355,-0.6342,-0.6404,-0.6444,-0.6463,-0.6518,-0.654,-0.6602,-0.6569,-0.6592,-0.6642,-0.6668,-0.6737,-0.6659,-0.6744,-0.6747,-0.6735,-0.6877,-0.6897,-0.7013,-0.6831,-0.6833,-0.6835,0,-0.6202,-0.6252,-0.6369,-0.6416,-0.6441,-0.6496,-0.6555,-0.6606,-0.6654,-0.6664,-0.6706,-0.6703,-0.6779,-0.673,-0.6837,-0.6784,-0.6819,-0.6838,-0.6843,-0.6853,-0.6799,-0.6895,-0.705,-0.7069,-0.6861,-0.6859,-0.6857,0,-0.629,-0.6386,-0.6469,-0.6494,-0.655,-0.659,-0.6615,-0.6659,-0.6697,-0.675,-0.6775,-0.6836,-0.6871,-0.692,-0.6936,-0.6898,-0.7044,-0.6995,-0.7058,-0.7058,-0.7091,-0.7089,-0.7258,-0.7109,-0.7109,-0.7108,-0.7108,0,-0.6415,-0.6489,-0.651,-0.6562,-0.6645,-0.6652,-0.6735,-0.6758,-0.6798,-0.6857,-0.6849,-0.6904,-0.692,-0.698,-0.6992,-0.7081,-0.7096,-0.711,-0.7113,-0.7112,-0.7111,-0.7138,-0.7131,-0.7113,-0.7112,-0.7111,-0.711,0,-0.6528,-0.6545,-0.6636,-0.6681,-0.6694,-0.6754,-0.6794,-0.6846,-0.6863,-0.6938,-0.6956,-0.6986,-0.7055,-0.7075,-0.7159,-0.7168,-0.7274,-0.7268,-0.7258,-0.7259,-0.7322,-0.7317,-0.7515,-0.7544,-0.7373,-0.7375,-0.7376,0,-0.6608,-0.6665,-0.6716,-0.6754,-0.6781,-0.6841,-0.688,-0.6891,-0.6933,-0.6992,-0.7037,-0.7106,-0.7161,-0.7274,-0.7305,-0.7371,-0.7369,-0.7434,-0.7379,-0.7377,-0.7374,-0.7372,-0.7379,-0.7445,-0.7447,-0.7448,-0.7449,0,-0.675,-0.6756,-0.6811,-0.6871,-0.6917,-0.6965,-0.7011,-0.7043,-0.706,-0.7108,-0.7179,-0.7222,-0.7308,-0.7378,-0.7444,-0.7474,-0.7467,-0.7466,-0.7485,-0.7486,-0.748,-0.7488,-0.729,-0.7462,-0.7461,-0.746,-0.7459,-0.7459,-0.6852,-0.6902,-0.6947,-0.701,-0.7045,-0.7089,-0.714,-0.7165,-0.7223,-0.7293,-0.7296,-0.7374,-0.7424,-0.7512,-0.7545,-0.7609,-0.759,-0.7616,-0.7623,-0.763,-0.7637,-0.7467,-0.762,-0.762,-0.762,-0.7619,-0.7619,0,-0.6996,-0.7024,-0.7082,-0.7146,-0.7197,-0.7182,-0.7233,-0.7278,-0.7345,-0.7391,-0.7446,-0.7529,-0.7597,-0.7634,-0.7703,-0.7747,-0.7746,-0.7765,-0.7764,-0.7771,-0.7648,-0.7627,-0.7765,-0.7765,-0.7765,-0.7765,-0.7765,-0.7765,-0.7077,-0.7163,-0.7175,-0.7279,-0.7308,-0.7383,-0.7414,-0.7455,-0.7492,-0.7585,-0.7641,-0.7663,-0.7707,-0.7779,-0.7842,-0.7852,-0.7879,-0.7901,-0.7909,-0.7794,-0.7779,-0.7765,-0.7745,-0.7906,-0.7907,-0.8028,-0.8029,-0.803]},{"header":{"parameterUnit":"m.s-1","parameterCategory":1,"la1":30.2991,"la2":30.254,"lo1":-89.0895,"lo2":-89.0444,"dy":0.0017,"dx":0.0017,"nx":28,"ny":28,"refTime":"2024-03-25T21:00:00:Z","depth":0,"parameterNumber":3,"parameterNumberName":"V-component_of_WINDS"},"data":[0,0,0,0,0,0,0,0,0,0,0,0,0,0,0,0,0,0,0,0,0,0,0,0,0,0,0,0,0,0,0,0,0,0,0,0,0,0,0,0,0,0,0,0,0,0,0,0,0,0,0,0,0,0,0,0,0,0,-0.7577,-0.7576,0,-0.7515,-0.7515,-0.7514,-0.7481,-0.7481,-0.7481,-0.7481,-0.7415,-0.7414,-0.7412,0,0,0,0,0,0,0,0,0,0,0,0,0,-0.7662,-0.766,-0.7577,-0.7576,-0.7575,-0.7516,-0.7515,-0.7514,-0.7481,-0.7481,-0.7481,-0.7481,-0.7416,-0.7414,-0.7412,0,0,0,0,0,0,0,0,0,0,0,0,0,-0.7615,-0.766,-0.7577,-0.7552,-0.7549,-0.7516,-0.7515,-0.7514,-0.7481,-0.7481,-0.7481,-0.7481,-0.7416,-0.7414,-0.7411,-0.7398,0,0,-0.7404,-0.7403,0,0,0,0,0,0,0,0,-0.7618,-0.7612,-0.7556,-0.7553,-0.755,-0.7506,-0.7521,-0.7475,-0.7481,-0.7507,-0.7481,-0.7481,-0.7445,-0.744,-0.7429,-0.7395,-0.7392,-0.7403,-0.7402,-0.7401,-0.74,0,0,0,0,0,0,0,-0.7621,-0.7614,-0.7552,-0.7555,-0.7552,-0.7542,-0.7536,-0.7512,-0.7477,-0.7504,-0.7502,-0.7495,-0.7444,-0.7432,-0.7427,-0.7391,-0.7404,-0.7401,-0.74,-0.7399,-0.7343,-0.7343,0,0,0,0,0,0,-0.7629,-0.7617,-0.7554,-0.755,-0.7585,-0.7541,-0.7533,-0.752,-0.7477,-0.7471,-0.7495,-0.7494,-0.7436,-0.743,-0.7425,-0.7406,-0.7401,-0.7399,-0.7397,-0.7343,-0.7343,-0.7343,0,0,0,0,0,0,-0.7631,-0.7624,-0.7557,-0.7583,-0.7574,-0.754,-0.7525,-0.7519,-0.7507,-0.7471,-0.7464,-0.749,-0.7436,-0.7428,-0.7405,-0.7404,-0.7397,-0.7395,-0.7343,-0.7343,-0.7343,-0.7369,0,0,0,0,0,0,-0.7633,-0.7624,-0.762,-0.7583,-0.7573,-0.7539,-0.7525,-0.7518,-0.7503,-0.7501,-0.7463,-0.7457,-0.7435,-0.7409,-0.7403,-0.74,-0.7393,-0.7343,-0.7343,-0.7343,-0.7369,-0.737,-0.7372,0,0,0,0,0,-0.7637,-0.7629,-0.762,-0.7612,-0.7566,-0.7539,-0.7533,-0.7508,-0.7503,-0.7497,-0.7474,-0.7458,-0.7405,-0.7407,-0.7399,-0.7396,-0.7343,-0.7343,-0.7343,-0.7368,-0.737,-0.7372,0,0,0,0,0,0,-0.7664,-0.7623,-0.7613,-0.7593,-0.757,-0.7533,-0.7526,-0.7511,-0.7488,-0.7487,-0.7456,-0.7448,-0.7428,-0.7409,-0.7412,-0.7381,-0.7372,-0.7371,-0.7394,-0.7395,-0.7397,-0.7402,-0.7391,0,0,0,0,0,-0.7668,-0.7651,-0.7615,-0.7601,-0.7591,-0.756,-0.7547,-0.7531,-0.7505,-0.7495,-0.7469,-0.7444,-0.7422,-0.7407,-0.7385,-0.7366,-0.7357,-0.736,-0.7361,-0.7363,-0.7362,-0.7351,-0.7352,-0.7343,-0.7343,-0.7343,0,0,-0.7676,-0.7651,-0.7642,-0.7606,-0.7586,-0.7568,-0.7552,-0.7533,-0.7519,-0.7491,-0.7468,-0.7449,-0.7419,-0.7398,-0.7387,-0.7382,-0.7363,-0.7363,-0.7365,-0.7363,-0.7351,-0.7352,-0.7353,-0.7343,-0.7343,-0.7343,0,0,-0.7681,-0.7661,-0.7647,-0.7628,-0.7598,-0.7578,-0.7575,-0.7541,-0.7527,-0.7504,-0.7483,-0.7465,-0.7427,-0.7407,-0.7391,-0.7389,-0.7374,-0.7382,-0.7391,-0.7381,-0.7382,-0.7382,-0.7382,-0.7382,-0.7381,-0.7382,-0.7382,0,-0.7694,-0.7666,-0.7641,-0.7624,-0.7609,-0.7585,-0.757,-0.7552,-0.7516,-0.7506,-0.7501,-0.7453,-0.7431,-0.7405,-0.7405,-0.7393,-0.7388,-0.7386,-0.7384,-0.7384,-0.7384,-0.7383,-0.7383,-0.7383,-0.7383,-0.7383,-0.7382,0,-0.7684,-0.7665,-0.7657,-0.7625,-0.7609,-0.7593,-0.7565,-0.7552,-0.7537,-0.7517,-0.7494,-0.7466,-0.7438,-0.743,-0.7415,-0.7402,-0.74,-0.739,-0.738,-0.7386,-0.7385,-0.7385,-0.7385,-0.7384,-0.7384,-0.7384,0,0,-0.7704,-0.7659,-0.7656,-0.7642,-0.7608,-0.7592,-0.7575,-0.7548,-0.7538,-0.7514,-0.7498,-0.7467,-0.7458,-0.744,-0.7422,-0.7413,-0.7413,-0.7403,-0.7402,-0.7406,-0.7398,-0.7407,-0.7407,-0.7403,-0.7403,-0.7403,-0.7401,0,-0.7704,-0.7674,-0.7651,-0.7629,-0.7612,-0.7588,-0.7573,-0.755,-0.7532,-0.7513,-0.7492,-0.747,-0.7459,-0.7449,-0.7439,-0.7415,-0.7411,-0.7415,-0.7388,-0.7387,-0.7397,-0.7406,-0.7415,-0.7414,-0.74,-0.74,-0.74,0,-0.77,-0.7679,-0.7655,-0.7624,-0.7616,-0.7603,-0.7577,-0.756,-0.7533,-0.752,-0.7501,-0.7483,-0.7463,-0.7456,-0.7428,-0.7431,-0.7419,-0.7406,-0.7405,-0.7402,-0.7394,-0.7403,-0.7414,-0.7414,-0.7399,-0.7399,-0.7399,0,-0.7718,-0.7683,-0.7665,-0.7652,-0.7615,-0.7607,-0.759,-0.7564,-0.755,-0.7526,-0.7517,-0.7491,-0.7477,-0.7458,-0.7433,-0.743,-0.7408,-0.7398,-0.7396,-0.7397,-0.7393,-0.7393,-0.7402,-0.7384,-0.7384,-0.7384,-0.7384,0,-0.7721,-0.7707,-0.7672,-0.7661,-0.7645,-0.7619,-0.7604,-0.7585,-0.7562,-0.7546,-0.7524,-0.7509,-0.7477,-0.7458,-0.7438,-0.7419,-0.7412,-0.7401,-0.7396,-0.7403,-0.7405,-0.7395,-0.7394,-0.7384,-0.7384,-0.7384,-0.7384,0,-0.7738,-0.7714,-0.7692,-0.7659,-0.765,-0.764,-0.7611,-0.7599,-0.758,-0.756,-0.7554,-0.7522,-0.7499,-0.7473,-0.744,-0.7427,-0.7409,-0.7401,-0.7419,-0.7416,-0.7415,-0.7416,-0.7418,-0.7417,-0.74,-0.74,-0.74,0,-0.7741,-0.7731,-0.7697,-0.7685,-0.767,-0.7652,-0.7637,-0.7611,-0.7597,-0.7566,-0.7558,-0.7533,-0.7512,-0.7477,-0.745,-0.7426,-0.7417,-0.742,-0.7413,-0.7421,-0.7418,-0.7419,-0.7418,-0.7422,-0.7422,-0.7422,-0.7422,0,-0.775,-0.7739,-0.772,-0.7697,-0.7681,-0.7661,-0.764,-0.7631,-0.7601,-0.7586,-0.7563,-0.7547,-0.7515,-0.749,-0.7463,-0.7445,-0.7428,-0.7425,-0.7423,-0.743,-0.7441,-0.7436,-0.7424,-0.7425,-0.7424,-0.7424,-0.7424,-0.7424,-0.776,-0.775,-0.7725,-0.7705,-0.7687,-0.7668,-0.7655,-0.7635,-0.7615,-0.7588,-0.7573,-0.7551,-0.7524,-0.7485,-0.7468,-0.745,-0.7444,-0.7441,-0.7441,-0.7441,-0.7443,-0.7444,-0.7444,-0.7444,-0.7444,-0.7444,-0.7444,0,-0.7769,-0.7752,-0.7733,-0.7705,-0.7689,-0.7677,-0.7653,-0.764,-0.7621,-0.7598,-0.7578,-0.7552,-0.7529,-0.7501,-0.7476,-0.7466,-0.7458,-0.7461,-0.7461,-0.7458,-0.7449,-0.7454,-0.7468,-0.7468,-0.7468,-0.7468,-0.7468,-0.7468,-0.7771,-0.7753,-0.7739,-0.7712,-0.7695,-0.7674,-0.7662,-0.7644,-0.7626,-0.7598,-0.7579,-0.7562,-0.7537,-0.751,-0.7488,-0.748,-0.7472,-0.7477,-0.7467,-0.746,-0.7458,-0.7456,-0.746,-0.7475,-0.7475,-0.7477,-0.7477,-0.7477]}]]